Location: Miles
(41.4492°N, 81.6087°W)
Time: 07:28:27
(UTC+00:00)

Vanguard 1 Rocket - Pass Details

Date: 20 September 2024
Orbit: 650 x 4218 km, 34.3° (Epoch: 05 October)

Event Time Altitude Azimuth Distance (km) Brightness Sun altitude
Rises 16:24:38 0° 280° (W) 8,149 12.0 47.4°
Reaches altitude 10° 16:34:04 10° 263° (W) 7,390 12.1 48.0°
Maximum altitude 16:46:08 16° 234° (SW) 6,821 12.3 48.6°
Drops below altitude 10° 16:57:35 10° 205° (SSW) 6,840 12.6 49.0°
Sets 17:05:56 0° 186° (S) 7,251 12.6 49.1°
